Regional Weather Roundup
Issued by NWS Charleston, WV

Home | Current Version | Previous Version | Graphics & Text | Print | Product List | Glossary On
Versions: 1 2 3 4 5 6 7 8 9 10 11 12 13 14 15 16 17 18 19 20 21 22 23 24 25 26 27 28 29 30 31 32 33 34 35 36 37 38 39 40 41 42 43 44 45 46 47 48 49 50
000
ASUS41 KRLX 122210
RWRRLX
West Virginia Regional Weather Roundup
National Weather Service Charleston WV
500 PM EST FRI FEB 12 2016

Note: "fair" indicates few or no clouds below 12,000 feet with no
significant weather and/or obstructions to visibility.

WVZ003-122300-
Northern Panhandle of West Virginia

CITY           SKY/WX    TMP DP  RH WIND       PRES   REMARKS
WHEELING       CLOUDY    20   9  62 W10       29.96S WCI   9
$$

WVZ009-122300-
Northwest West Virginia

CITY           SKY/WX    TMP DP  RH WIND       PRES   REMARKS
PARKERSBURG    LGT SNOW  23  15  71 W8        30.05R
$$

WVZ006-122300-
Western West Virginia

CITY           SKY/WX    TMP DP  RH WIND       PRES   REMARKS
HUNTINGTON     CLOUDY    31  12  45 W7        30.05R
$$

WVZ015-122300-
West Central West Virginia

CITY           SKY/WX    TMP DP  RH WIND       PRES   REMARKS
CHARLESTON     CLOUDY    29  12  49 W8        30.03R
$$

WVZ022-031-122300-
North Central West Virginia

CITY           SKY/WX    TMP DP  RH WIND       PRES   REMARKS
CLARKSBURG     LGT SNOW  21  17  84 W3        29.97S VSB 3/4
MORGANTOWN     LGT SNOW  20  13  74 SW9       29.98S VSB 1   WCI   9
$$

WVZ025-035-042-045-122300-
Southern West Virginia

CITY           SKY/WX    TMP DP  RH WIND       PRES   REMARKS
BECKLEY        FLURRIES  25  18  74 W12       29.93R
LOGAN          CLOUDY    28  16  59 CALM      30.00R
BLUEFIELD      CLOUDY    25  20  81 NW16G26   29.91R
LEWISBURG      LGT SNOW  29  24  81 W7        29.90S
$$

WVZ047-122300-
Northern Mountains of West Virginia

CITY           SKY/WX    TMP DP  RH WIND       PRES   REMARKS
ELKINS         LGT SNOW  22  15  75 MISG      29.91F
$$

WVZ052-122300-
Eastern Panhandle of West Virginia

CITY           SKY/WX    TMP DP  RH WIND       PRES   REMARKS
MARTINSBURG    CLOUDY    27  11  51 VRB3      29.97F
PETERSBURG     LGT SNOW  27  21  78 CALM      29.95S
$$



USA.gov is the U.S. government's official web portal to all federal, state and local government web resources and services.